Location: Unspecified
(0.0000°N, 0.0000°E)
Time: 06:42:30
(UTC+00:00)

Kosmos-648 - Pass Details

Date: 04 July 2022
Orbit: 1437 x 1489 km, 74.0° (Epoch: 16 August)

Event Time Altitude Azimuth Distance (km) Brightness Sun altitude
Rises 21:07:30 0° 334° (NNW) 4,602 ? -41.3°
Reaches altitude 10° 21:10:34 10° 328° (NNW) 3,624 ? -42.0°
Enters shadow 21:18:35 46° 263° (W) 1,915 ? -43.7°
